Location: Newark
(5.8900°S, 42.6378°W)
Time: 09:36:56
(UTC+00:00)

Transit 2A Rocket - Pass Details

Date: 18 October 2019
Orbit: 594 x 909 km, 66.7° (Epoch: 14 November)

Event Time Altitude Azimuth Distance (km) Brightness Sun altitude
Rises 06:14:15 0° 195° (SSW) 3,516 8.4 -33.5°
Enters shadow 06:14:21 - 195° (SSW) 3,478 8.4 -33.4°
Exits shadow 06:23:44 56° 60° (ENE) 995 5.6 -31.2°
Drops below altitude 10° 06:28:11 10° 28° (NNE) 2,366 7.7 -30.1°
Sets 06:30:31 0° 26° (NNE) 3,244 8.4 -29.5°
